#timestamp,LO_Frequency,Hit,StdDev 
1507928415.1,286046996.8,N
1507928416.0,286046996.8,N
1507928435.8,286046995.0,N
1507928455.6,286046995.0,N
1507928475.5,286046996.3,N
1507928495.3,286046996.7,N
1507928515.1,286046996.8,N
1507928535.9,286047002.0,N
1507928555.7,286047001.5,N
1507928575.5,286047002.7,N
1507928595.4,286047002.1,N
1507928615.2,286047004.1,N
1507928635.0,286047005.2,N
1507928635.9,286047005.2,N
1507928655.8,286047005.1,N
1507928675.6,286047007.3,N
1507928695.4,286047006.7,N
1507928715.2,286047008.4,N
1507928735.1,286047008.6,N
1507928736.0,286047008.6,N
1507928755.8,286047004.6,N
1507928775.6,286047007.4,N
1507928795.5,286047006.4,N
1507928815.3,286047008.2,N
1507928835.1,286047008.8,N
1507928855.9,286047009.1,N
1507928875.7,286047004.4,N
1507928895.5,286047006.3,N
1507928915.4,286047004.8,N
1507928935.2,286047008.4,N
1507928955.0,286047009.8,N
1507928955.9,286047009.8,N
1507928975.8,286047012.0,N
1507928995.6,286047009.3,N
1507929015.4,286047014.4,Y
1507929035.3,286047009.7,P
1507929055.1,286047009.5,P
1507929056.0,286047009.5,P
1507929075.8,286047011.5,Y
1507929095.7,286046998.7,P
1507929115.5,286047000.4,N
1507929135.3,286046999.0,N
1507929155.2,286046996.6,N
1507929175.9,286046999.0,N
1507929195.7,286046996.8,N
1507929215.5,286046995.0,N
1507929235.4,286046997.7,N
1507929255.2,286046996.3,N
1507929275.0,286046992.5,N
1507929275.9,286046992.5,N
1507929295.8,286046994.8,N
1507929315.6,286046990.9,N
1507929335.4,286046996.3,N
1507929355.3,286046992.7,N
1507929375.1,286046991.4,N
1507929395.8,286046993.1,N
1507929415.7,286046989.5,N
1507929435.5,286046989.5,N
1507929455.3,286046990.0,N
1507929475.2,286046987.7,N
1507929495.9,286046985.7,Y
1507929515.7,286046988.9,P
1507929535.6,286046989.6,P
1507929555.4,286046988.2,P
1507929575.2,286046983.7,Y
1507929595.1,286046996.4,P
1507929596.0,286046996.4,N
1507929615.8,286046993.4,N
1507929635.6,286046995.1,N
1507929655.5,286046996.9,N
1507929675.3,286046999.5,N
1507929695.1,286046999.3,N
1507929715.9,286046995.6,N
1507929735.7,286046995.5,N
1507929755.5,286046996.2,N
1507929775.3,286046993.2,N
1507929795.2,286046990.1,Y
1507929815.0,286046997.2,P
1507929815.9,286046997.2,P
1507929835.7,286046999.4,N
1507929855.6,286047000.4,N
1507929875.4,286047002.7,N
1507929895.2,286047003.9,N
1507929915.1,286047006.0,N
1507929916.0,286047006.0,N
1507929935.8,286047001.7,N
1507929955.6,286046998.9,N
1507929975.5,286047000.6,N
1507929995.3,286046997.3,N
1507930015.1,286046994.7,N
1507930035.9,286046991.5,N
1507930055.7,286046985.4,Y
1507930075.5,286046984.6,P
1507930095.4,286046985.0,N
1507930115.2,286046983.0,N
1507930135.0,286046983.1,N
1507930135.9,286046983.1,N
1507930155.8,286046981.6,Y
1507930175.6,286046993.2,P
1507930195.4,286046991.0,N
1507930215.3,286046989.8,P
1507930235.1,286046987.4,Y
1507930236.0,286046987.4,P
1507930255.8,286046999.5,N
1507930275.7,286046996.6,N
1507930295.5,286046995.0,N
1507930315.3,286046993.7,N
1507930335.2,286046995.7,N
1507930355.9,286046994.5,N
1507930375.7,286046995.6,N
1507930395.6,286047001.1,N
1507930415.4,286046997.1,N
1507930435.2,286046995.0,N
1507930455.0,286046996.8,N
1507930455.9,286046996.8,N
1507930475.8,286046997.3,N
1507930495.6,286046995.6,N
1507930515.4,286046995.8,N
1507930535.3,286046993.5,N
1507930555.1,286046994.0,N
1507930575.8,286046991.7,N
1507930595.7,286046996.2,N
1507930615.5,286046996.7,N
1507930635.3,286046995.3,N
1507930655.2,286046995.9,N
1507930675.9,286046993.7,N
1507930695.7,286046997.8,N
1507930715.5,286047000.8,N
1507930735.4,286047000.9,N
1507930755.2,286047003.2,N
1507930775.0,286047008.5,N
1507930775.9,286047008.5,N
1507930795.8,286047011.0,N
1507930815.6,286047015.4,Y
1507930835.4,286047017.9,P
1507930855.3,286047021.0,N
1507930875.1,286047020.6,N
1507930895.8,286047022.5,N
1507930915.7,286047021.0,N
1507930935.5,286047018.5,N
1507930955.3,286047019.1,N
1507930975.2,286047016.7,N
1507930995.9,286047015.2,N
1507931015.7,286047016.0,N
1507931035.6,286047016.8,N
1507931055.4,286047018.7,Y
1507931075.2,286047004.1,P
1507931095.1,286047003.1,N
1507931096.0,286047003.1,N
1507931115.8,286047007.2,N
1507931135.6,286047008.2,N
1507931155.5,286047008.3,N
1507931175.3,286047008.2,N
1507931195.1,286047010.6,N
1507931215.8,286047008.4,N
1507931235.7,286047008.7,N
1507931255.5,286047008.2,N
1507931275.4,286047012.3,Y
1507931295.2,286046999.9,P
1507931315.0,286046998.3,N
1507931315.9,286046998.3,N
1507931335.7,286047000.3,N
1507931355.6,286047001.2,N
1507931375.4,286046999.9,N
1507931395.2,286046998.8,N
1507931415.1,286046999.4,N
1507931416.0,286046999.4,N
1507931435.8,286046997.4,N
1507931455.6,286046996.6,N
1507931475.5,286046995.3,N
1507931495.3,286046996.4,N
1507931515.1,286046990.2,Y
1507931535.9,286046994.7,P
1507931555.7,286046996.0,N
1507931575.5,286046995.2,N
1507931595.4,286046993.9,Y
1507931615.2,286046995.3,P
1507931635.0,286046999.2,N
1507931635.9,286046999.2,N
1507931655.8,286046997.4,N
1507931675.6,286046998.1,N
1507931695.4,286047000.8,N
1507931715.3,286047000.6,N
1507931735.1,286046998.7,N
1507931736.0,286046998.7,N
1507931755.8,286046997.9,N
1507931775.7,286046999.2,N
1507931795.5,286046997.2,N
1507931815.3,286046991.9,Y
1507931835.2,286046995.9,P
1507931855.9,286046998.0,N
1507931875.7,286046994.6,P
1507931895.6,286046991.9,Y
1507931915.4,286046995.6,P
1507931935.2,286046995.5,P
1507931955.1,286046997.3,P
1507931956.0,286046997.3,Y
1507931975.8,286046998.5,P
1507931995.6,286046997.7,N
